User: anonymous   Login
Location: Unspecified
(0.0000°N, 0.0000°E)
Time: 01:40:58
(UTC+00:00)
Language:

Delta IV Demo - Orbit

View from above orbital plane
View from above orbital plane
View from above satellite
View from above satellite

Ground track
Ground track

The orbit data is extracted from the following two-line orbital elements,

1 28500U 04050A   17089.18190660 0.00000000  00000-0  00000-0 0    03
2 28500  15.7563  44.2706 2776354 165.3635 204.6695  1.41299468    06
Epoch (UTC): 30 March 2017 04:21:56
Eccentricity: 0.2776354
inclination: 15.7563°
perigee height: 17854 km
apogee height: 36481 km
right ascension of ascending node: 44.2706°
argument of perigee: 165.3635°
revolutions per day: 1.41299468
mean anomaly at epoch: 204.6695°
orbit number at epoch: 0

The dashed part of the orbit path shows where the satellite is in the earth's shadow,  

DLR